,,,PA_Meas_PMT16A,,PR_Meas_QMR101_102,,RH_Meas_QMH101,,SR_Meas_QMS101,,TA_Meas_QMH101,,GenWind,,GenWind,
date,time,status,PA,status,PR,status,RH,status,SR,status,TA,status,DirAvg,status,SpdAvg,
2008-04-09, 00:00:04,VALID,1003.64,VALID,0,VALID,92.5688,VALID,0,VALID,23.4328,VALID,8,VALID,0,
2008-04-09, 00:01:04,VALID,1003.63,VALID,0,VALID,92.6833,VALID,0,VALID,23.4134,VALID,8,VALID,0,
2008-04-09, 00:02:04,VALID,1003.61,VALID,0,VALID,92.7824,VALID,0,VALID,23.3957,VALID,8,VALID,0,
2008-04-09, 00:03:04,VALID,1003.61,VALID,0,VALID,92.8969,VALID,0,VALID,23.3337,VALID,8,VALID,0,
2008-04-09, 00:04:04,VALID,1003.55,VALID,0,VALID,93.0342,VALID,0,VALID,23.316,VALID,8,VALID,0,
2008-04-09, 00:05:04,VALID,1003.56,VALID,0,VALID,93.1486,VALID,0,VALID,23.2771,VALID,8,VALID,0,
2008-04-09, 00:06:04,VALID,1003.53,VALID,0,VALID,93.3165,VALID,0,VALID,23.2577,VALID,8,VALID,0,
2008-04-09, 00:07:04,VALID,1003.52,VALID,0,VALID,93.4614,VALID,0,VALID,23.2382,VALID,8,VALID,0,
2008-04-09, 00:08:04,VALID,1003.52,VALID,0,VALID,93.5835,VALID,0,VALID,23.2594,VALID,8,VALID,0,
2008-04-09, 00:09:04,VALID,1003.56,VALID,0,VALID,93.675,VALID,0,VALID,23.2187,VALID,8,VALID,0,
2008-04-09, 00:10:04,VALID,1003.55,VALID,0,VALID,93.7284,VALID,0,VALID,23.1993,VALID,8,VALID,0,
2008-04-09, 00:11:04,VALID,1003.55,VALID,0,VALID,93.7895,VALID,0,VALID,23.1798,VALID,8,VALID,0,
2008-04-09, 00:12:04,VALID,1003.57,VALID,0,VALID,93.9191,VALID,0,VALID,23.1798,VALID,8,VALID,0,
2008-04-09, 00:13:04,VALID,1003.53,VALID,0,VALID,94.0031,VALID,0,VALID,23.1798,VALID,8,VALID,0,
2008-04-09, 00:14:04,VALID,1003.54,VALID,0,VALID,94.0946,VALID,0,VALID,23.1603,VALID,8,VALID,0,
2008-04-09, 00:15:04,VALID,1003.53,VALID,0,VALID,94.1175,VALID,0,VALID,23.1798,VALID,8,VALID,0,
2008-04-09, 00:16:04,VALID,1003.53,VALID,0,VALID,94.148,VALID,0,VALID,23.1409,VALID,8,VALID,0,
2008-04-09, 00:17:04,VALID,1003.51,VALID,0,VALID,94.2396,VALID,0,VALID,23.1409,VALID,8,VALID,0,
2008-04-09, 00:18:04,VALID,1003.48,VALID,0,VALID,94.2777,VALID,0,VALID,23.1409,VALID,8,VALID,0,
2008-04-09, 00:19:04,VALID,1003.46,VALID,0,VALID,94.3464,VALID,0,VALID,23.1214,VALID,8,VALID,0,
2008-04-09, 00:20:04,VALID,1003.46,VALID,0,VALID,94.3921,VALID,0,VALID,23.0807,VALID,8,VALID,0,
2008-04-09, 00:21:04,VALID,1003.42,VALID,0,VALID,94.4074,VALID,0,VALID,23.0825,VALID,8,VALID,0,
2008-04-09, 00:22:04,VALID,1003.38,VALID,0,VALID,94.3998,VALID,0,VALID,23.063,VALID,8,VALID,0,
2008-04-09, 00:23:04,VALID,1003.35,VALID,0,VALID,94.4074,VALID,0,VALID,23.0436,VALID,8,VALID,0,
2008-04-09, 00:24:04,VALID,1003.36,VALID,0,VALID,94.3921,VALID,0,VALID,23.0436,VALID,8,VALID,0,
2008-04-09, 00:25:04,VALID,1003.31,VALID,0,VALID,94.4684,VALID,0,VALID,23.0241,VALID,8,VALID,0,
2008-04-09, 00:26:04,VALID,1003.32,VALID,0,VALID,94.5371,VALID,0,VALID,23.0241,VALID,8,VALID,0,
2008-04-09, 00:27:04,VALID,1003.28,VALID,0,VALID,94.4761,VALID,0,VALID,23.0241,VALID,8,VALID,0,
2008-04-09, 00:28:04,VALID,1003.23,VALID,0,VALID,94.5371,VALID,0,VALID,22.9834,VALID,8,VALID,0,
2008-04-09, 00:29:04,VALID,1003.29,VALID,0,VALID,94.5752,VALID,0,VALID,22.9834,VALID,8,VALID,0,
2008-04-09, 00:30:04,VALID,1003.25,VALID,0,VALID,94.6134,VALID,0,VALID,22.9834,VALID,8,VALID,0,
2008-04-09, 00:31:04,VALID,1003.24,VALID,0,VALID,94.6439,VALID,0,VALID,23.0046,VALID,8,VALID,0,
2008-04-09, 00:32:04,VALID,1003.25,VALID,0,VALID,94.8194,VALID,0.100563,VALID,23.0241,VALID,8,VALID,0,
2008-04-09, 00:33:04,VALID,1003.23,VALID,0,VALID,94.7507,VALID,0,VALID,23.0046,VALID,8,VALID,0,
2008-04-09, 00:34:04,VALID,1003.26,VALID,0,VALID,94.7049,VALID,0,VALID,23.0046,VALID,8,VALID,0,
2008-04-09, 00:35:04,VALID,1003.3,VALID,0,VALID,94.8651,VALID,0.100563,VALID,23.0046,VALID,8,VALID,0,
2008-04-09, 00:36:04,VALID,1003.29,VALID,0,VALID,95.0711,VALID,0,VALID,23.0029,VALID,7,VALID,0.0902344,
2008-04-09, 00:37:04,VALID,1003.31,VALID,0,VALID,95.0558,VALID,0,VALID,23.0648,VALID,7,VALID,0.495313,
2008-04-09, 00:38:04,VALID,1003.29,VALID,0,VALID,94.9414,VALID,0,VALID,23.0241,VALID,7,VALID,0.400391,
2008-04-09, 00:39:04,VALID,1003.27,VALID,0,VALID,94.7812,VALID,0,VALID,23.0046,VALID,7,VALID,0.250781,
2008-04-09, 00:40:04,VALID,1003.27,VALID,0,VALID,94.766,VALID,0,VALID,23.0046,VALID,7,VALID,0.488672,
2008-04-09, 00:41:04,VALID,1003.25,VALID,0,VALID,94.7965,VALID,0.100563,VALID,22.9852,VALID,7,VALID,0.497656,
2008-04-09, 00:42:04,VALID,1003.25,VALID,0,VALID,94.9414,VALID,0,VALID,22.964,VALID,7,VALID,0.484375,
2008-04-09, 00:43:04,VALID,1003.24,VALID,0,VALID,95.0253,VALID,0.100563,VALID,22.9852,VALID,7,VALID,0.458203,
2008-04-09, 00:44:04,VALID,1003.2,VALID,0,VALID,95.0864,VALID,0,VALID,22.9852,VALID,6,VALID,0.63125,
2008-04-09, 00:45:04,VALID,1003.22,VALID,0,VALID,95.1093,VALID,0,VALID,22.9852,VALID,6,VALID,0.525,
2008-04-09, 00:46:04,VALID,1003.18,VALID,0,VALID,95.2084,VALID,0.100563,VALID,23.0046,VALID,5,VALID,0.509375,
2008-04-09, 00:47:04,VALID,1003.17,VALID,0,VALID,95.2237,VALID,0,VALID,22.9834,VALID,5,VALID,0.419922,
2008-04-09, 00:48:04,VALID,1003.16,VALID,0,VALID,95.2542,VALID,0,VALID,23.0241,VALID,3,VALID,0.501172,
2008-04-09, 00:49:04,VALID,1003.14,VALID,0,VALID,95.2237,VALID,0.100563,VALID,23.0241,VALID,3,VALID,0.392578,
2008-04-09, 00:50:04,VALID,1003.12,VALID,0,VALID,95.155,VALID,0,VALID,23.0241,VALID,3,VALID,0.381641,
2008-04-09, 00:51:04,VALID,1003.13,VALID,0,VALID,95.1093,VALID,0.100563,VALID,23.0241,VALID,3,VALID,0.345313,
2008-04-09, 00:52:04,VALID,1003.14,VALID,0,VALID,95.1245,VALID,0,VALID,22.9834,VALID,3,VALID,0.499609,
2008-04-09, 00:53:04,VALID,1003.12,VALID,0,VALID,95.155,VALID,0.100563,VALID,23.0046,VALID,3,VALID,0.582031,
2008-04-09, 00:54:04,VALID,1003.11,VALID,0,VALID,95.2008,VALID,0,VALID,22.9834,VALID,3,VALID,0.633203,
2008-04-09, 00:55:04,VALID,1003.1,VALID,0,VALID,95.2161,VALID,0,VALID,23.0046,VALID,3,VALID,0.639844,
2008-04-09, 00:56:04,VALID,1003.1,VALID,0,VALID,95.2313,VALID,0.100563,VALID,22.9852,VALID,3,VALID,0.521094,
2008-04-09, 00:57:04,VALID,1003.06,VALID,0,VALID,95.2466,VALID,0,VALID,22.9657,VALID,3,VALID,0.466406,
2008-04-09, 00:58:04,VALID,1003.04,VALID,0,VALID,95.506,VALID,0.100563,VALID,23.0046,VALID,3,VALID,0.302734,
2008-04-09, 00:59:04,VALID,1003.01,VALID,0,VALID,95.5136,VALID,0.100563,VALID,23.0241,VALID,3,VALID,0.180469,
2008-04-09, 01:00:04,VALID,1002.96,VALID,0,VALID,95.4678,VALID,0.100563,VALID,23.0436,VALID,3,VALID,0.00273437,
2008-04-09, 01:01:04,VALID,1002.93,VALID,0,VALID,95.4373,VALID,0.100563,VALID,23.0418,VALID,2,VALID,0.184766,
2008-04-09, 01:02:04,VALID,1002.9,VALID,0,VALID,95.4297,VALID,0.100563,VALID,23.1019,VALID,2,VALID,0.142578,
2008-04-09, 01:03:04,VALID,1002.88,VALID,0,VALID,95.2389,VALID,0.100563,VALID,23.0807,VALID,2,VALID,0.0980469,
2008-04-09, 01:04:04,VALID,1002.85,VALID,0,VALID,95.1245,VALID,0.100563,VALID,23.0807,VALID,2,VALID,0.0148437,
2008-04-09, 01:05:04,VALID,1002.84,VALID,0,VALID,95.0177,VALID,0.100563,VALID,23.0613,VALID,2,VALID,0.396484,
2008-04-09, 01:06:04,VALID,1002.81,VALID,0,VALID,94.8804,VALID,0.100563,VALID,23.0613,VALID,2,VALID,0.431641,
2008-04-09, 01:07:04,VALID,1002.78,VALID,0,VALID,94.7888,VALID,0,VALID,23.0241,VALID,2,VALID,0.391797,
2008-04-09, 01:08:04,VALID,1002.81,VALID,0,VALID,94.8117,VALID,0.100563,VALID,23.0241,VALID,2,VALID,0.356641,
2008-04-09, 01:09:04,VALID,1002.8,VALID,0,VALID,94.8194,VALID,0.100563,VALID,22.9852,VALID,2,VALID,0.314453,
2008-04-09, 01:10:04,VALID,1002.8,VALID,0,VALID,94.8651,VALID,0,VALID,22.9445,VALID,2,VALID,0.350781,
2008-04-09, 01:11:04,VALID,1002.79,VALID,0,VALID,94.9719,VALID,0.100563,VALID,22.9463,VALID,2,VALID,0.327344,
2008-04-09, 01:12:04,VALID,1002.79,VALID,0,VALID,95.0253,VALID,0.100563,VALID,22.9251,VALID,3,VALID,0.371875,
2008-04-09, 01:13:04,VALID,1002.78,VALID,0,VALID,95.1169,VALID,0.100563,VALID,22.9251,VALID,3,VALID,0.446484,
2008-04-09, 01:14:04,VALID,1002.78,VALID,0,VALID,95.1779,VALID,0.100563,VALID,22.9445,VALID,2,VALID,0.294141,
2008-04-09, 01:15:04,VALID,1002.79,VALID,0,VALID,95.1779,VALID,0.100563,VALID,22.9463,VALID,2,VALID,0.319922,
2008-04-09, 01:16:04,VALID,1002.79,VALID,0,VALID,95.2084,VALID,0.100563,VALID,22.8861,VALID,2,VALID,0.526172,
2008-04-09, 01:17:04,VALID,1002.75,VALID,0,VALID,95.2313,VALID,0.100563,VALID,22.9056,VALID,2,VALID,0.585156,
2008-04-09, 01:18:04,VALID,1002.75,VALID,0,VALID,95.1932,VALID,0.100563,VALID,22.8861,VALID,2,VALID,0.590234,
2008-04-09, 01:19:04,VALID,1002.73,VALID,0,VALID,95.1245,VALID,0.100563,VALID,22.8879,VALID,2,VALID,0.567578,
2008-04-09, 01:20:04,VALID,1002.67,VALID,0,VALID,95.0635,VALID,0.100563,VALID,22.8472,VALID,2,VALID,0.539453,
2008-04-09, 01:21:04,VALID,1002.68,VALID,0,VALID,95.094,VALID,0,VALID,22.8489,VALID,2,VALID,0.510547,
2008-04-09, 01:22:04,VALID,1002.67,VALID,0,VALID,95.1779,VALID,0.100563,VALID,22.8295,VALID,2,VALID,0.486328,
2008-04-09, 01:23:04,VALID,1002.62,VALID,0,VALID,95.1398,VALID,0,VALID,22.8118,VALID,2,VALID,0.404687,
2008-04-09, 01:24:04,VALID,1002.61,VALID,0,VALID,95.1627,VALID,0,VALID,22.7923,VALID,2,VALID,0.0210938,
2008-04-09, 01:25:04,VALID,1002.58,VALID,0,VALID,95.2084,VALID,0,VALID,22.7923,VALID,2,VALID,0.1375,
2008-04-09, 01:26:04,VALID,1002.56,VALID,0,VALID,95.3076,VALID,0,VALID,22.7923,VALID,2,VALID,0.446094,
2008-04-09, 01:27:04,VALID,1002.57,VALID,0,VALID,95.4602,VALID,0,VALID,22.7906,VALID,2,VALID,0.180859,
2008-04-09, 01:28:04,VALID,1002.56,VALID,0,VALID,95.5288,VALID,0,VALID,22.8312,VALID,2,VALID,0.128516,
2008-04-09, 01:29:04,VALID,1002.52,VALID,0,VALID,95.506,VALID,0,VALID,22.81,VALID,2,VALID,0,
2008-04-09, 01:30:04,VALID,1002.52,VALID,0,VALID,95.5899,VALID,0,VALID,22.8507,VALID,2,VALID,0,
2008-04-09, 01:31:04,VALID,1002.54,VALID,0,VALID,95.5517,VALID,0,VALID,22.8896,VALID,2,VALID,0,
2008-04-09, 01:32:04,VALID,1002.49,VALID,0,VALID,95.4907,VALID,0,VALID,22.8684,VALID,2,VALID,0,
2008-04-09, 01:33:04,VALID,1002.51,VALID,0,VALID,95.3991,VALID,0,VALID,22.9091,VALID,2,VALID,0,
2008-04-09, 01:34:04,VALID,1002.51,VALID,0,VALID,95.4297,VALID,0,VALID,22.9285,VALID,2,VALID,0,
2008-04-09, 01:35:04,VALID,1002.53,VALID,0,VALID,95.4297,VALID,0,VALID,22.948,VALID,2,VALID,0,
2008-04-09, 01:36:04,VALID,1002.55,VALID,0,VALID,95.361,VALID,0,VALID,22.9463,VALID,2,VALID,0,
2008-04-09, 01:37:04,VALID,1002.56,VALID,0,VALID,95.3686,VALID,0,VALID,22.9463,VALID,2,VALID,0.0402344,
2008-04-09, 01:38:04,VALID,1002.57,VALID,0,VALID,95.4449,VALID,0.100563,VALID,22.964,VALID,2,VALID,0.146484,
2008-04-09, 01:39:04,VALID,1002.56,VALID,0,VALID,95.361,VALID,0.100563,VALID,23.0046,VALID,355,VALID,0.0597656,
2008-04-09, 01:40:04,VALID,1002.56,VALID,0,VALID,95.2237,VALID,0,VALID,22.9852,VALID,355,VALID,0,
2008-04-09, 01:41:04,VALID,1002.57,VALID,0,VALID,95.2237,VALID,0.100563,VALID,22.9852,VALID,355,VALID,0,
2008-04-09, 01:42:04,VALID,1002.55,VALID,0,VALID,95.1779,VALID,0.100563,VALID,22.9445,VALID,355,VALID,0,
2008-04-09, 01:43:04,VALID,1002.55,VALID,0,VALID,95.1474,VALID,0.100563,VALID,22.9463,VALID,355,VALID,0,
2008-04-09, 01:44:04,VALID,1002.55,VALID,0,VALID,95.1016,VALID,0,VALID,22.9268,VALID,355,VALID,0.0136719,
2008-04-09, 01:45:04,VALID,1002.53,VALID,0,VALID,95.0253,VALID,0.100563,VALID,22.9073,VALID,355,VALID,0.271484,
2008-04-09, 01:46:04,VALID,1002.57,VALID,0,VALID,94.9185,VALID,0.100563,VALID,22.8667,VALID,355,VALID,0.282031,
2008-04-09, 01:47:04,VALID,1002.56,VALID,0,VALID,94.9185,VALID,0.100563,VALID,22.8684,VALID,355,VALID,0.327734,
2008-04-09, 01:48:04,VALID,1002.58,VALID,0,VALID,94.8499,VALID,0.100563,VALID,22.8278,VALID,355,VALID,0.389062,
2008-04-09, 01:49:04,VALID,1002.58,VALID,0,VALID,94.949,VALID,0,VALID,22.8083,VALID,355,VALID,0.396875,
2008-04-09, 01:50:04,VALID,1002.56,VALID,0,VALID,94.9643,VALID,0.100563,VALID,22.81,VALID,355,VALID,0.436328,
2008-04-09, 01:51:04,VALID,1002.54,VALID,0,VALID,95.0253,VALID,0.100563,VALID,22.7906,VALID,355,VALID,0.562891,
2008-04-09, 01:52:04,VALID,1002.55,VALID,0,VALID,95.0635,VALID,0.100563,VALID,22.7499,VALID,2,VALID,0.569922,
2008-04-09, 01:53:04,VALID,1002.57,VALID,0,VALID,95.0482,VALID,0,VALID,22.7516,VALID,2,VALID,0.509766,
2008-04-09, 01:54:04,VALID,1002.59,VALID,0,VALID,95.0406,VALID,0.100563,VALID,22.7127,VALID,2,VALID,0.396484,
2008-04-09, 01:55:04,VALID,1002.56,VALID,0,VALID,95.2771,VALID,0.100563,VALID,22.7322,VALID,2,VALID,0.474609,
2008-04-09, 01:56:04,VALID,1002.56,VALID,0,VALID,95.567,VALID,0.100563,VALID,22.7711,VALID,1,VALID,0.250391,
2008-04-09, 01:57:04,VALID,1002.57,VALID,0,VALID,95.6128,VALID,0.100563,VALID,22.7906,VALID,360,VALID,0.130078,
2008-04-09, 01:58:04,VALID,1002.57,VALID,0,VALID,95.6433,VALID,0.100563,VALID,22.8489,VALID,360,VALID,0.0078125,
2008-04-09, 01:59:04,VALID,1002.53,VALID,0,VALID,95.6585,VALID,0.100563,VALID,22.8472,VALID,360,VALID,0.158203,
2008-04-09, 02:00:04,VALID,1002.49,VALID,0,VALID,95.567,VALID,0.100563,VALID,22.8667,VALID,360,VALID,0.403125,
2008-04-09, 02:01:04,VALID,1002.48,VALID,0,VALID,95.4754,VALID,0.100563,VALID,22.9073,VALID,360,VALID,0.466797,
2008-04-09, 02:02:04,VALID,1002.44,VALID,0,VALID,95.4373,VALID,0,VALID,22.8667,VALID,360,VALID,0.447266,
2008-04-09, 02:03:04,VALID,1002.47,VALID,0,VALID,95.2771,VALID,0,VALID,22.8684,VALID,360,VALID,0.509766,
2008-04-09, 02:04:04,VALID,1002.48,VALID,0,VALID,95.1474,VALID,0.100563,VALID,22.8278,VALID,1,VALID,0.464453,
2008-04-09, 02:05:04,VALID,1002.48,VALID,0,VALID,95.2771,VALID,0.100563,VALID,22.8295,VALID,1,VALID,0.485156,
2008-04-09, 02:06:04,VALID,1002.49,VALID,0,VALID,95.4602,VALID,0.100563,VALID,22.8489,VALID,1,VALID,0.595703,
2008-04-09, 02:07:04,VALID,1002.47,VALID,0,VALID,95.4907,VALID,0.100563,VALID,22.8879,VALID,1,VALID,0.566016,
2008-04-09, 02:08:04,VALID,1002.48,VALID,0,VALID,95.5594,VALID,0.100563,VALID,22.9073,VALID,360,VALID,0.620703,
2008-04-09, 02:09:04,VALID,1002.48,VALID,0,VALID,95.6204,VALID,0.100563,VALID,22.9268,VALID,358,VALID,0.640625,
2008-04-09, 02:10:04,VALID,1002.46,VALID,0,VALID,95.6128,VALID,0.100563,VALID,22.9445,VALID,350,VALID,0.723828,
2008-04-09, 02:11:04,VALID,1002.45,VALID,0,VALID,95.7043,VALID,0.100563,VALID,23.0029,VALID,353,VALID,0.605859,
2008-04-09, 02:12:04,VALID,1002.46,VALID,0,VALID,95.6967,VALID,0.100563,VALID,23.0613,VALID,348,VALID,0.419922,
2008-04-09, 02:13:04,VALID,1002.47,VALID,0,VALID,95.6356,VALID,0.100563,VALID,23.1586,VALID,347,VALID,0.289844,
2008-04-09, 02:14:04,VALID,1002.47,VALID,0,VALID,95.3991,VALID,0.100563,VALID,23.217,VALID,343,VALID,0.422656,
2008-04-09, 02:15:05,VALID,1002.52,VALID,0,VALID,95.2542,VALID,0.100563,VALID,23.2754,VALID,339,VALID,0.191797,
2008-04-09, 02:16:05,VALID,1002.5,VALID,0,VALID,95.0177,VALID,0.100563,VALID,23.3337,VALID,339,VALID,0.00820312,
2008-04-09, 02:17:05,VALID,1002.51,VALID,0,VALID,94.8194,VALID,0.100563,VALID,23.3921,VALID,339,VALID,0.293359,
2008-04-09, 02:18:04,VALID,1002.49,VALID,0,VALID,94.56,VALID,0.100563,VALID,23.4505,VALID,340,VALID,0,
2008-04-09, 02:19:05,VALID,1002.49,VALID,0,VALID,94.4761,VALID,0.100563,VALID,23.4894,VALID,340,VALID,0.028125,
2008-04-09, 02:20:05,VALID,1002.51,VALID,0,VALID,94.2548,VALID,0.100563,VALID,23.5478,VALID,341,VALID,0.431641,
2008-04-09, 02:21:05,VALID,1002.51,VALID,0,VALID,94.0107,VALID,0.100563,VALID,23.6257,VALID,341,VALID,0,
2008-04-09, 02:22:05,VALID,1002.5,VALID,0,VALID,93.7589,VALID,0.100563,VALID,23.6646,VALID,341,VALID,0.113281,
2008-04-09, 02:23:05,VALID,1002.52,VALID,0,VALID,93.4843,VALID,0,VALID,23.7035,VALID,340,VALID,0.411719,
2008-04-09, 02:24:05,VALID,1002.53,VALID,0,VALID,93.1639,VALID,0,VALID,23.7832,VALID,339,VALID,0.556641,
2008-04-09, 02:25:05,VALID,1002.52,VALID,0,VALID,92.8892,VALID,0.100563,VALID,23.8611,VALID,2,VALID,0.666797,
2008-04-09, 02:26:05,VALID,1002.53,VALID,0,VALID,92.6222,VALID,0.100563,VALID,23.9,VALID,348,VALID,0.803906,
2008-04-09, 02:27:05,VALID,1002.54,VALID,0,VALID,92.3781,VALID,0,VALID,23.9195,VALID,356,VALID,0.540625,
2008-04-09, 02:28:05,VALID,1002.52,VALID,0,VALID,92.2027,VALID,0.100563,VALID,23.9584,VALID,357,VALID,0.533984,
2008-04-09, 02:29:05,VALID,1002.46,VALID,0,VALID,92.0348,VALID,0,VALID,23.9761,VALID,349,VALID,0.232031,
2008-04-09, 02:30:05,VALID,1002.47,VALID,0,VALID,91.9128,VALID,0.100563,VALID,24.0168,VALID,351,VALID,0.525391,
2008-04-09, 02:31:05,VALID,1002.47,VALID,0,VALID,91.8365,VALID,0.100563,VALID,24.0363,VALID,351,VALID,0.30625,
2008-04-09, 02:32:05,VALID,1002.48,VALID,0,VALID,91.6915,VALID,0,VALID,24.0168,VALID,351,VALID,0.376172,
2008-04-09, 02:33:05,VALID,1002.47,VALID,0,VALID,91.6686,VALID,0,VALID,23.9779,VALID,351,VALID,0.363672,
2008-04-09, 02:34:05,VALID,1002.49,VALID,0,VALID,91.7983,VALID,0,VALID,23.9584,VALID,351,VALID,0.24375,
2008-04-09, 02:35:05,VALID,1002.48,VALID,0,VALID,91.8594,VALID,0,VALID,23.9195,VALID,351,VALID,0.410937,
2008-04-09, 02:36:05,VALID,1002.5,VALID,0,VALID,91.928,VALID,0.100563,VALID,23.8398,VALID,351,VALID,0.412891,
2008-04-09, 02:37:05,VALID,1002.48,VALID,0,VALID,92.0653,VALID,0,VALID,23.8221,VALID,351,VALID,0.486328,
2008-04-09, 02:38:05,VALID,1002.46,VALID,0,VALID,92.3934,VALID,0,VALID,23.7814,VALID,351,VALID,0.376172,
2008-04-09, 02:39:05,VALID,1002.48,VALID,0,VALID,92.7901,VALID,0,VALID,23.7637,VALID,351,VALID,0.360547,
2008-04-09, 02:40:05,VALID,1002.46,VALID,0,VALID,93.1181,VALID,0,VALID,23.7425,VALID,351,VALID,0.375781,
2008-04-09, 02:41:05,VALID,1002.44,VALID,0,VALID,93.3088,VALID,0.100563,VALID,23.7425,VALID,351,VALID,0.416016,
2008-04-09, 02:42:05,VALID,1002.4,VALID,0,VALID,93.347,VALID,0,VALID,23.7832,VALID,351,VALID,0.275,
2008-04-09, 02:43:05,VALID,1002.37,VALID,0,VALID,93.3699,VALID,0,VALID,23.7832,VALID,351,VALID,0.310937,
2008-04-09, 02:44:05,VALID,1002.32,VALID,0,VALID,93.4462,VALID,0,VALID,23.7814,VALID,351,VALID,0.276172,
2008-04-09, 02:45:05,VALID,1002.32,VALID,0,VALID,93.3928,VALID,0,VALID,23.8416,VALID,350,VALID,0.412109,
2008-04-09, 02:46:05,VALID,1002.3,VALID,0,VALID,93.3699,VALID,0,VALID,23.8805,VALID,335,VALID,0.566016,
2008-04-09, 02:47:05,VALID,1002.31,VALID,0,VALID,93.1868,VALID,0,VALID,23.9602,VALID,338,VALID,0.489453,
2008-04-09, 02:48:05,VALID,1002.31,VALID,0,VALID,93.0418,VALID,0,VALID,23.9973,VALID,339,VALID,0.388281,
2008-04-09, 02:49:05,VALID,1002.3,VALID,0,VALID,92.9198,VALID,0,VALID,24.0557,VALID,341,VALID,0.4125,
2008-04-09, 02:50:05,VALID,1002.33,VALID,0,VALID,92.7596,VALID,0,VALID,24.0539,VALID,342,VALID,0.380469,
2008-04-09, 02:51:05,VALID,1002.33,VALID,0,VALID,92.5993,VALID,0,VALID,24.1142,VALID,348,VALID,0.771484,
2008-04-09, 02:52:05,VALID,1002.33,VALID,0,VALID,92.4315,VALID,0,VALID,24.1707,VALID,357,VALID,0.566797,
2008-04-09, 02:53:05,VALID,1002.33,VALID,0,VALID,92.1874,VALID,0,VALID,24.2523,VALID,352,VALID,0.499609,
2008-04-09, 02:54:05,VALID,1002.34,VALID,0,VALID,91.9204,VALID,0,VALID,24.3302,VALID,352,VALID,0.15625,
2008-04-09, 02:55:05,VALID,1002.3,VALID,0,VALID,91.6915,VALID,0,VALID,24.3691,VALID,352,VALID,0.325,
2008-04-09, 02:56:05,VALID,1002.3,VALID,0,VALID,91.5084,VALID,0,VALID,24.3886,VALID,352,VALID,0.0183594,
2008-04-09, 02:57:05,VALID,1002.27,VALID,0,VALID,91.3482,VALID,0,VALID,24.447,VALID,350,VALID,0.330469,
2008-04-09, 02:58:05,VALID,1002.3,VALID,0,VALID,91.2719,VALID,0,VALID,24.5054,VALID,349,VALID,0.124609,
2008-04-09, 02:59:05,VALID,1002.33,VALID,0,VALID,91.0125,VALID,0,VALID,24.5035,VALID,349,VALID,0.395703,
2008-04-09, 03:00:05,VALID,1002.33,VALID,0,VALID,90.8676,VALID,0,VALID,24.5425,VALID,348,VALID,0.489844,
2008-04-09, 03:01:05,VALID,1002.32,VALID,0,VALID,90.6158,VALID,0,VALID,24.6009,VALID,347,VALID,0.605078,
2008-04-09, 03:02:05,VALID,1002.33,VALID,0,VALID,90.4556,VALID,0,VALID,24.6417,VALID,342,VALID,0.581641,
2008-04-09, 03:03:05,VALID,1002.34,VALID,0,VALID,90.1505,VALID,0,VALID,24.7001,VALID,352,VALID,0.657812,
2008-04-09, 03:04:05,VALID,1002.34,VALID,0,VALID,89.9674,VALID,0,VALID,24.7391,VALID,340,VALID,0.575,
2008-04-09, 03:05:05,VALID,1002.33,VALID,0,VALID,89.7614,VALID,0,VALID,24.7761,VALID,334,VALID,0.484375,
2008-04-09, 03:06:05,VALID,1002.31,VALID,0,VALID,89.441,VALID,0,VALID,24.8364,VALID,350,VALID,0.7,
2008-04-09, 03:07:05,VALID,1002.31,VALID,0,VALID,89.1816,VALID,0,VALID,24.8559,VALID,352,VALID,0.666016,
2008-04-09, 03:08:05,VALID,1002.3,VALID,0,VALID,88.907,VALID,0,VALID,24.8949,VALID,300,VALID,0.442578,
2008-04-09, 03:09:05,VALID,1002.33,VALID,0,VALID,88.7773,VALID,0,VALID,24.9143,VALID,332,VALID,0.374219,
2008-04-09, 03:10:05,VALID,1002.3,VALID,0,VALID,88.4035,VALID,0,VALID,24.9533,VALID,345,VALID,0.670313,
2008-04-09, 03:11:05,VALID,1002.34,VALID,0,VALID,88.5026,VALID,0,VALID,24.9728,VALID,345,VALID,0.373437,
2008-04-09, 03:12:05,VALID,1002.33,VALID,0,VALID,88.2356,VALID,0,VALID,24.9922,VALID,337,VALID,0.2875,
2008-04-09, 03:13:05,VALID,1002.38,VALID,0,VALID,88.2127,VALID,0,VALID,25.0136,VALID,337,VALID,0.360547,
2008-04-09, 03:14:05,VALID,1002.38,VALID,0,VALID,88.1136,VALID,0,VALID,25.0117,VALID,337,VALID,0.00585938,
2008-04-09, 03:15:05,VALID,1002.42,VALID,0,VALID,88.1441,VALID,0,VALID,25.0117,VALID,332,VALID,0.190625,
2008-04-09, 03:16:05,VALID,1002.4,VALID,0,VALID,88.1593,VALID,0,VALID,25.0117,VALID,332,VALID,0,
2008-04-09, 03:17:05,VALID,1002.45,VALID,0,VALID,88.1822,VALID,0,VALID,25.0117,VALID,331,VALID,0.247266,
2008-04-09, 03:18:05,VALID,1002.44,VALID,0,VALID,88.0068,VALID,0,VALID,25.0331,VALID,289,VALID,0.442969,
2008-04-09, 03:19:05,VALID,1002.41,VALID,0,VALID,87.9915,VALID,0,VALID,25.0526,VALID,289,VALID,0.0558594,
2008-04-09, 03:20:05,VALID,1002.45,VALID,0,VALID,87.7245,VALID,0,VALID,25.0526,VALID,289,VALID,0,
2008-04-09, 03:21:05,VALID,1002.46,VALID,0,VALID,88.1441,VALID,0,VALID,25.072,VALID,289,VALID,0,
2008-04-09, 03:22:05,VALID,1002.45,VALID,0,VALID,88.3806,VALID,0,VALID,25.0507,VALID,289,VALID,0,
2008-04-09, 03:23:05,VALID,1002.49,VALID,0,VALID,88.3195,VALID,0,VALID,25.0312,VALID,289,VALID,0.0628906,
2008-04-09, 03:24:05,VALID,1002.5,VALID,0,VALID,88.6628,VALID,0,VALID,25.0098,VALID,289,VALID,0.314844,
2008-04-09, 03:25:05,VALID,1002.52,VALID,0,VALID,88.9146,VALID,0,VALID,24.9709,VALID,289,VALID,0.147266,
2008-04-09, 03:26:05,VALID,1002.54,VALID,0,VALID,89.235,VALID,0,VALID,24.9533,VALID,289,VALID,0.207813,
2008-04-09, 03:27:05,VALID,1002.54,VALID,0,VALID,89.5631,VALID,0,VALID,24.8754,VALID,289,VALID,0,
2008-04-09, 03:28:05,VALID,1002.55,VALID,0,VALID,89.8224,VALID,0,VALID,24.8346,VALID,289,VALID,0,
2008-04-09, 03:29:05,VALID,1002.58,VALID,0,VALID,90.0818,VALID,0,VALID,24.7975,VALID,289,VALID,0.129688,
2008-04-09, 03:30:05,VALID,1002.58,VALID,0,VALID,90.3031,VALID,0,VALID,24.7196,VALID,289,VALID,0.113672,
2008-04-09, 03:31:05,VALID,1002.56,VALID,0,VALID,90.6006,VALID,0,VALID,24.6807,VALID,289,VALID,0.129688,
2008-04-09, 03:32:05,VALID,1002.57,VALID,0,VALID,90.8218,VALID,0,VALID,24.6417,VALID,289,VALID,0.121094,
2008-04-09, 03:33:05,VALID,1002.55,VALID,0,VALID,91.0507,VALID,0,VALID,24.6028,VALID,289,VALID,0,
2008-04-09, 03:34:05,VALID,1002.59,VALID,0,VALID,91.127,VALID,0,VALID,24.562,VALID,289,VALID,0.133984,
2008-04-09, 03:35:05,VALID,1002.55,VALID,0,VALID,91.2185,VALID,0,VALID,24.5638,VALID,289,VALID,0.208594,
2008-04-09, 03:36:05,VALID,1002.59,VALID,0,VALID,91.3558,VALID,0,VALID,24.5638,VALID,289,VALID,0.00898437,
2008-04-09, 03:37:05,VALID,1002.61,VALID,0,VALID,91.3787,VALID,0,VALID,24.5425,VALID,289,VALID,0.36875,
2008-04-09, 03:38:05,VALID,1002.6,VALID,0,VALID,91.4169,VALID,0,VALID,24.5638,VALID,289,VALID,0.2125,
2008-04-09, 03:39:05,VALID,1002.62,VALID,0,VALID,91.2643,VALID,0,VALID,24.562,VALID,289,VALID,0.277344,
2008-04-09, 03:40:05,VALID,1002.62,VALID,0,VALID,91.2109,VALID,0,VALID,24.6009,VALID,289,VALID,0.196094,
2008-04-09, 03:41:05,VALID,1002.64,VALID,0,VALID,91.0431,VALID,0,VALID,24.6398,VALID,293,VALID,0.167969,
2008-04-09, 03:42:05,VALID,1002.64,VALID,0,VALID,90.8905,VALID,0,VALID,24.6593,VALID,293,VALID,0,
2008-04-09, 03:43:05,VALID,1002.66,VALID,0,VALID,91.1651,VALID,0,VALID,24.6983,VALID,293,VALID,0,
2008-04-09, 03:44:05,VALID,1002.64,VALID,0,VALID,91.3864,VALID,0,VALID,24.6983,VALID,278,VALID,0.466797,
2008-04-09, 03:45:05,VALID,1002.67,VALID,0,VALID,91.4474,VALID,0,VALID,24.7001,VALID,218,VALID,0.544531,